www.dot.state.il.us - /desenv/hwystds/Rev215/Revision 215 dgns/


[To Parent Directory]

Thursday, August 22, 2013 2:42 PM 29363542 1_Rev215_AllHighwayStandards_DGN.exe
Thursday, August 22, 2013 2:43 PM 548101 1_Rev215_Div000_DGN.exe
Thursday, August 22, 2013 2:44 PM 563013 1_Rev215_Div200_DGN.exe
Thursday, August 22, 2013 2:44 PM 276152 1_Rev215_Div300_DGN.exe
Thursday, August 22, 2013 2:45 PM 5649930 1_Rev215_Div400_DGN.exe
Thursday, August 22, 2013 2:45 PM 5405546 1_Rev215_Div500_DGN.exe
Thursday, August 22, 2013 2:46 PM 9112532 1_Rev215_Div600_DGN.exe
Thursday, August 22, 2013 2:47 PM 4121557 1_Rev215_Div700_DGN.exe
Thursday, August 22, 2013 2:48 PM 3970766 1_Rev215_Div800_DGN.exe
Thursday, August 22, 2013 2:48 PM 1807917 1_Rev215_DivBLR_DGN.exe
Wednesday, August 21, 2013 10:35 AM 320512 215-000001-06_standardsymbolsabbreviations&patterns.dgn
Wednesday, August 21, 2013 10:36 AM 78336 215-001001-02_areasofreinfrebars.dgn
Wednesday, August 21, 2013 10:37 AM 84992 215-001006_decimalofinch&foot.dgn
Wednesday, August 21, 2013 10:38 AM 84480 215-202001-01_earthmedditchcheck.dgn
Friday, August 23, 2013 8:33 AM 309248 215-280001-07_temperosioncntrlsystems.dgn
Wednesday, August 21, 2013 10:40 AM 115712 215-285001-02_fabricformedconcrevetmentmats.dgn
Wednesday, August 21, 2013 10:42 AM 147456 215-353001-04_pccbsecsewithhmabind&surfcses.dgn
Wednesday, August 21, 2013 10:58 AM 153600 215-406001-05_entrramptermflexpvmt.dgn
Wednesday, August 21, 2013 11:06 AM 279040 215-406101-04_exitrampterminal.dgn
Wednesday, August 21, 2013 11:07 AM 124928 215-406201-01_mailboxturnout.dgn
Wednesday, August 21, 2013 11:08 AM 247808 215-420001-07_pavementjoints.dgn
Wednesday, August 21, 2013 11:12 AM 99840 215-420101-04_24ftjointedpccpvmt.dgn
Wednesday, August 21, 2013 11:13 AM 126464 215-420106-04_36ftjointedpccpvmt.dgn
Wednesday, August 21, 2013 11:15 AM 132608 215-420111-03_pccpvmtroundouts.dgn
Wednesday, August 21, 2013 11:16 AM 246784 215-420201-08_entrrampterm-pccadjtopcc.dgn
Wednesday, August 21, 2013 11:17 AM 251392 215-420206-09_entrrampterm-pccadjtocrc.dgn
Wednesday, August 21, 2013 11:18 AM 334336 215-420301-05_exitrampterm-pccadjtopcc.dgn
Wednesday, August 21, 2013 11:18 AM 334848 215-420306-07_exitrampterm-pccadjtocrc.dgn
Wednesday, August 21, 2013 11:19 AM 162816 215-420401-10_bridgeapproachpvmtconnector.dgn
Wednesday, August 21, 2013 11:20 AM 131072 215-420501-04_pccpvmt&pccbsecseadjtorrgradexing.dgn
Wednesday, August 21, 2013 11:21 AM 110080 215-420601-05_24ftpccpvmt.dgn
Wednesday, August 21, 2013 11:22 AM 96768 215-420701-02_pavementfabric.dgn
Wednesday, August 21, 2013 11:24 AM 82944 215-421001-02_barreinfforcrcpvmt.dgn
Wednesday, August 21, 2013 11:25 AM 400384 215-421101-09_24ftcrcpvmt-wwideflangebeamtermjt.dgn
Wednesday, August 21, 2013 11:26 AM 356864 215-421106-09_36ftcrcpvmt-wwideflangebeamtermjt.dgn
Wednesday, August 21, 2013 11:28 AM 382976 215-421201-06_24ftcrcpvmt-wlugsys.dgn
Wednesday, August 21, 2013 11:29 AM 403968 215-421206-06_36ftcrcpvmt-wlugsys.dgn
Wednesday, August 21, 2013 11:30 AM 292864 215-424001-07_PerpendicularCurbRamps.dgn
Wednesday, August 21, 2013 11:31 AM 290304 215-424006-01_DiagonalCurbRamps.dgn
Wednesday, August 21, 2013 11:32 AM 290304 215-424011-01_CornerParallelCurbRamps.dgn
Wednesday, August 21, 2013 11:33 AM 290304 215-424016-01_MidBlockCurbRamps.dgn
Wednesday, August 21, 2013 11:34 AM 290304 215-424021-02_DepressedCorner.dgn
Wednesday, August 21, 2013 11:34 AM 290304 215-424026-01_EntranceAlleyPedestrianCrossings.dgn
Wednesday, August 21, 2013 11:36 AM 290304 215-424031-01_MedianPedestrianCrossings.dgn
Wednesday, August 21, 2013 11:37 AM 162304 215-442001-04_classapatches.dgn
Wednesday, August 21, 2013 11:38 AM 307200 215-442101-07_classbpatches.dgn
Wednesday, August 21, 2013 11:39 AM 188416 215-442201-03_classc&dpatches.dgn
Wednesday, August 21, 2013 11:40 AM 144384 215-482001-02_hmashldadjtoflexpvmt.dgn
Wednesday, August 21, 2013 11:41 AM 86016 215-482006-03_hmashldadjtorigidpvmt.dgn
Wednesday, August 21, 2013 11:42 AM 161792 215-482011-03_hmashldstrips(shlds)wresurforwiden&resurfproj.dgn
Wednesday, August 21, 2013 11:43 AM 161792 215-483001-04_pccshld.dgn
Wednesday, August 21, 2013 11:51 AM 120320 215-515001-03_nameplateforbridges.dgn
Wednesday, August 21, 2013 11:52 AM 410112 215-542001-04_ConcreteEndSectionsforPipeCulverts15inthru84inDia.dgn
Wednesday, August 21, 2013 11:54 AM 390144 215-542006-01_MultipleConcreteEndSectionsforPipeCulverts15inThru84inDia.dgn
Wednesday, August 21, 2013 1:06 PM 748544 215-542011_ConcreteEndSectionsforEllipticalPipeCulverts15inThru72inEquivDia.dgn
Wednesday, August 21, 2013 1:09 PM 1023488 215-542016_MultipleConcreteEndSectionsforPipeCulverts15inThru72inEquivDia.dgn
Wednesday, August 21, 2013 1:12 PM 326144 215-542201-02_reinfconcendsectforpipeculv15-36indiaskewed.dgn
Wednesday, August 21, 2013 1:15 PM 240640 215-542206-03_reinfconcendsectforpipeculv42-60indiaskewed.dgn
Wednesday, August 21, 2013 1:16 PM 105472 215-542301-03_precastreinfconcflaredendsect.dgn
Wednesday, August 21, 2013 1:18 PM 101888 215-542306-02_precastreinfconcellipticalflaredendsect.dgn
Wednesday, August 21, 2013 1:20 PM 340992 215-542311-05_TraversablePipeGrate.dgn
Wednesday, August 21, 2013 1:21 PM 103936 215-542401-01_metalendsectforpipeculv.dgn
Wednesday, August 21, 2013 1:22 PM 101888 215-542406-01_metalendsectforpipearch.dgn
Wednesday, August 21, 2013 1:23 PM 223232 215-542501-02_inletboxtypea24in.dgn
Wednesday, August 21, 2013 1:25 PM 258048 215-542506-02_inletboxtypeb24in.dgn
Wednesday, August 21, 2013 1:26 PM 270336 215-542511-02_inletboxtypec24in.dgn
Wednesday, August 21, 2013 1:28 PM 296448 215-542516-03_inletboxtyped24in.dgn
Wednesday, August 21, 2013 1:29 PM 290816 215-542521-02_inletboxtypee24in.dgn
Wednesday, August 21, 2013 1:30 PM 283648 215-542526-03_inletboxtypef24in.dgn
Wednesday, August 21, 2013 1:31 PM 266752 215-542531-04_inletboxtypeg24in.dgn
Wednesday, August 21, 2013 1:33 PM 348160 215-542536-03_inletboxtypea36in.dgn
Wednesday, August 21, 2013 1:34 PM 349696 215-542541-02_inletboxtypea48in.dgn
Wednesday, August 21, 2013 1:35 PM 273408 215-542546-01_flushinletboxformedian.dgn
Wednesday, August 21, 2013 1:37 PM 87552 215-542601-03_rcpipeelbow.dgn
Wednesday, August 21, 2013 1:37 PM 193536 215-542606-02_rcpipetee.dgn
Wednesday, August 21, 2013 1:54 PM 242688 215-601001-04_subsurfdrains.dgn
Wednesday, August 21, 2013 1:56 PM 84480 215-601101-01_conchdwforpipedrain.dgn
Wednesday, August 21, 2013 1:57 PM 91136 215-602001-02_catchbasin-typea.dgn
Wednesday, August 21, 2013 1:58 PM 189440 215-602006-04_catchbasin-typeb.dgn
Wednesday, August 21, 2013 1:58 PM 100864 215-602011-02_catchbasin-typec.dgn
Wednesday, August 21, 2013 1:59 PM 124928 215-602016-02_catchbasin-typed.dgn
Wednesday, August 21, 2013 2:13 PM 233472 215-602101-02_drainstruc-type1&2&3.dgn
Wednesday, August 21, 2013 2:20 PM 235008 215-602106-01_drainstruc-type4&5&6.dgn
Wednesday, August 21, 2013 2:21 PM 90624 215-602301-04_inlet-typea.dgn
Wednesday, August 21, 2013 2:22 PM 86016 215-602306-03_inlet-typeb.dgn
Wednesday, August 21, 2013 2:23 PM 90112 215-602401-03_manhole-typea.dgn
Wednesday, August 21, 2013 2:24 PM 121856 215-602406-06_manhole-typea6ftdia.dgn
Wednesday, August 21, 2013 2:25 PM 120320 215-602411-04_manhole-typea7ftdia.dgn
Wednesday, August 21, 2013 2:25 PM 121856 215-602416-04_manhole-typea8ftdia.dgn
Wednesday, August 21, 2013 2:26 PM 123904 215-602421-04_manhole-typea9ftdia.dgn
Wednesday, August 21, 2013 2:27 PM 94720 215-602501-02_valvevault-typea.dgn
Wednesday, August 21, 2013 2:31 PM 98816 215-602601-03_precastreinfconcflatslabtop.dgn
Wednesday, August 21, 2013 2:36 PM 90624 215-602701-02_manholesteps.dgn
Wednesday, August 21, 2013 2:41 PM 92672 215-604001-03_frame&lids-type1.dgn
Wednesday, August 21, 2013 2:43 PM 124928 215-604006-04_Frame&GrateType3.dgn
Wednesday, August 21, 2013 2:44 PM 134144 215-604011-04_frame&gratetype3v.dgn
Wednesday, August 21, 2013 2:45 PM 89600 215-604016-02_frame&gratetype4.dgn
Wednesday, August 21, 2013 2:46 PM 104448 215-604021-02_baseframe&lidstype5.dgn
Wednesday, August 21, 2013 2:47 PM 104960 215-604026-02_Frame&GrateType6.dgn
Wednesday, August 21, 2013 2:47 PM 72192 215-604031-02_GrateType7.dgn
Wednesday, August 21, 2013 2:51 PM 77824 215-604036-02_GrateType8.dgn
Wednesday, August 21, 2013 3:14 PM 96256 215-604041-02_frame&gratetype9.dgn
Wednesday, August 21, 2013 3:16 PM 96768 215-604046-02_frame&gratetype10.dgn
Wednesday, August 21, 2013 3:17 PM 120320 215-604051-03_frame&gratetype11.dgn
Wednesday, August 21, 2013 3:19 PM 136192 215-604056-03_frame&gratetype11v.dgn
Wednesday, August 21, 2013 3:20 PM 103424 215-604061-02_frame&gratetype12.dgn
Wednesday, August 21, 2013 3:32 PM 125440 215-604066-02_frame&lidtype15.dgn
Wednesday, August 21, 2013 3:33 PM 98816 215-604071-04_frame&gratetype20.dgn
Wednesday, August 21, 2013 3:34 PM 109056 215-604076-04_frame&gratetype21.dgn
Wednesday, August 21, 2013 3:35 PM 104960 215-604081-04_frame&gratetype22.dgn
Wednesday, August 21, 2013 3:36 PM 162816 215-604086-02_frame&gratetype23.dgn
Wednesday, August 21, 2013 3:37 PM 156160 215-604091-02_frame&gratetype24.dgn
Wednesday, August 21, 2013 3:38 PM 168448 215-604101-01_medianinletfor24inrcpipe.dgn
Wednesday, August 21, 2013 3:46 PM 172032 215-604106-01_medianinletfor36inrcpipe.dgn
Wednesday, August 21, 2013 3:47 PM 190976 215-606001-05_conccurbtypeb&comboconcc&g.dgn
Wednesday, August 21, 2013 3:49 PM 238080 215-606006-02_outletsforconcc&g-typeb-6.24.dgn
Wednesday, August 21, 2013 3:50 PM 165376 215-606101-04_typeagut-inloutl&entr.dgn
Wednesday, August 21, 2013 3:51 PM 119808 215-606106-04_outltype1fortypeagut.dgn
Wednesday, August 21, 2013 3:52 PM 139776 215-606111-03_outltype2fortypeagut.dgn
Wednesday, August 21, 2013 3:55 PM 155136 215-606201-02_typebgut-inloutl&entr.dgn
Wednesday, August 21, 2013 3:56 PM 119296 215-606206-03_outltype1fortypebgut.dgn
Wednesday, August 21, 2013 3:57 PM 140288 215-606211-03_outltype2fortypebgut.dgn
Wednesday, August 21, 2013 4:05 PM 214016 215-606301-04_PCCIslands&Medians.dgn
Wednesday, August 21, 2013 4:06 PM 99328 215-606306-03_corrugatedpccmedians.dgn
Wednesday, August 21, 2013 4:07 PM 125952 215-606401-01_pavedditch.dgn
Wednesday, August 21, 2013 4:08 PM 299008 215-609006-05_BridgeApproachPvmt(DrainDetail).dgn
Wednesday, August 21, 2013 4:09 PM 250368 215-610001-06_ShldInletWithCurb.dgn
Thursday, August 22, 2013 8:26 AM 236032 215-630001-10_SteelPlateBeamGrdrail.dgn
Thursday, August 22, 2013 8:27 AM 157696 215-630101-09_GuardrailMountedOnExCulv.dgn
Thursday, August 22, 2013 8:28 AM 97792 215-630106-1_LongSpanGuardrailOverCulvert.dgn
Thursday, August 22, 2013 8:29 AM 107008 215-630201-06_PCC-BitStb@SteelPlateBeamGrdRail.dgn
Thursday, August 22, 2013 8:29 AM 101888 215-630301-06_ShldWidenForType1GrdrailTerms.dgn
Thursday, August 22, 2013 8:30 AM 115200 215-631006-08_TrafBarTermType1B.dgn
Thursday, August 22, 2013 8:31 AM 114176 215-631011-09_TrafBarTermType2.dgn
Thursday, August 22, 2013 8:32 AM 131584 215-631026-05_TrafBarTermType5.dgn
Thursday, August 22, 2013 8:33 AM 203776 215-631031-12_TrafBarTermType6.dgn
Thursday, August 22, 2013 8:34 AM 229888 215-631032-08_TrafBarTermType6A.dgn
Thursday, August 22, 2013 8:35 AM 183808 215-631033-05_trafbartermtype6B.dgn
Thursday, August 22, 2013 8:35 AM 109056 215-631046-04_trafbartermtype10.dgn
Thursday, August 22, 2013 8:36 AM 116224 215-631051-03_trafbartermtype11.dgn
Thursday, August 22, 2013 8:52 AM 110592 215-635001-01_delineators.dgn
Thursday, August 22, 2013 8:55 AM 97792 215-635006-03_reflector&termmrkrplacemnt.dgn
Thursday, August 22, 2013 8:56 AM 176640 215-635011-02_reflectormrkr&mountdetails.dgn
Thursday, August 22, 2013 9:15 AM 275456 215-636001-02_cablerdgrd-singlestrand.dgn
Thursday, August 22, 2013 9:23 AM 146432 215-637001-05_concbarrierdblface32in.dgn
Thursday, August 22, 2013 9:24 AM 151552 215-637006-03_concbarrierdblface42in.dgn
Thursday, August 22, 2013 9:25 AM 94208 215-638101-02_concglarescreen.dgn
Thursday, August 22, 2013 9:26 AM 140800 215-639001-02_sightscrn-precstprestressconcpanelwall.dgn
Thursday, August 22, 2013 9:27 AM 212480 215-640001-01_sightscrn-chainlinkfence.dgn
Thursday, August 22, 2013 9:28 AM 121856 215-641001-01_sightscrn-cedarstckadefencetypes.dgn
Thursday, August 22, 2013 9:28 AM 110592 215-641006-01_sightscrn-woodplankfencetypep.dgn
Thursday, August 22, 2013 9:30 AM 144896 215-642001-02_ShoulderRumbleStrip16in.dgn
Thursday, August 22, 2013 9:31 AM 164864 215-642006_ShoulderRumbleStrip8in.dgn
Thursday, August 22, 2013 9:32 AM 194560 215-643001-02_SandModuleImpactAttenuators.dgn
Thursday, August 22, 2013 9:33 AM 393728 215-664001-02_ChainLinkFence.dgn
Thursday, August 22, 2013 9:34 AM 373248 215-665001-02_WovenWireFence.dgn
Thursday, August 22, 2013 9:35 AM 95744 215-666001-01_ROWMrkrs.dgn
Thursday, August 22, 2013 9:37 AM 89088 215-667001-01_DrainageMrkrs.dgn
Thursday, August 22, 2013 10:33 AM 150528 215-667101-02_PermanentSurveyMrkrs.dgn
Thursday, August 22, 2013 10:39 AM 85504 215-668001-01_MethOfResetting-USGS&NGS-Benchmarks.dgn
Thursday, August 22, 2013 10:40 AM 71680 215-701001-02_OffRdOp-2L2W-15ftMinFromEOP-45MPH+.dgn
Thursday, August 22, 2013 10:41 AM 76800 215-701006-05_OffRdOp-2L2W-15ftToEOP-45MPH+.dgn
Thursday, August 22, 2013 10:41 AM 77824 215-701011-04_OffRdMovingOp-2L2W-DayOnly-45MPH+.dgn
Thursday, August 22, 2013 10:49 AM 78336 215-701101-04_OffRdOp-MultiLn-LessThan15ftToEOP.dgn
Thursday, August 22, 2013 10:50 AM 71168 215-701106-02_OffRdOp-MultiLn-MoreThan15ftAway.dgn
Thursday, August 22, 2013 10:51 AM 82432 215-701201-04_LnClosure2L2W-DayOnly.dgn
Thursday, August 22, 2013 10:52 AM 79872 215-701206-03_LnClosure2L2W-NightOnly45MPH+.dgn
Thursday, August 22, 2013 10:53 AM 80384 215-701301-04_LnClosure2L2W-ShortTimeOp.dgn
Thursday, August 22, 2013 10:58 AM 79360 215-701306-03_LnClosure2L2W-SlowMoveOpDayOnly45MPH+.dgn
Thursday, August 22, 2013 10:59 AM 75776 215-701311-03_LnClosure2L2W-MovingOpDayOnly.dgn
Thursday, August 22, 2013 11:03 AM 154624 215-701316-08_LnClosure2L2W-BridgeRepair45MPH+.dgn
Thursday, August 22, 2013 11:13 AM 157696 215-701321-13 LnClosure2L2W-BridgeRepair+Barrier.dgn
Thursday, August 22, 2013 11:15 AM 90112 215-701326-04_LnClosure2L2W-PvmtWidening45MPH+.dgn
Thursday, August 22, 2013 11:17 AM 100352 215-701331-04_LnClosure2L2W+RunAround45MPH+.dgn
Thursday, August 22, 2013 11:17 AM 91136 215-701336-06_LnClosure2L2W-WorkAreasInSeries45MPH+.dgn
Thursday, August 22, 2013 11:23 AM 99328 215-701400-07_ApprchToLnClosure-FrwayExpway.dgn
Thursday, August 22, 2013 11:24 AM 89088 215-701401-08_LnClosureFrwayExpway.dgn
Thursday, August 22, 2013 11:25 AM 94720 215-701402-09_LnClosureFrwayExpway+Barrier.dgn
Thursday, August 22, 2013 11:26 AM 93184 215-701406-08_LnClosureFrwayExpway-DayOpOnly.dgn
Thursday, August 22, 2013 11:26 AM 169984 215-701411-08_LnClosureMultiLn-EntrOrExitRamp45MPH+.dgn
Thursday, August 22, 2013 11:27 AM 108032 215-701416-07_LnClosureFrwayExpway+Crossover&Barrier.dgn
Thursday, August 22, 2013 11:28 AM 96256 215-701421-06_LnClosureMultiLn-DayOpOnly45-55MPH.dgn
Thursday, August 22, 2013 11:29 AM 94208 215-701422-06_LnClosureMultiLn-45-55MPH.dgn
Thursday, August 22, 2013 11:30 AM 89600 215-701423-07_LnClosureMultiln+Barrier45-55MPH.dgn
Thursday, August 22, 2013 11:31 AM 98816 215-701426-06_LnClosureMultiLn-IntermittantOrMovingOp45MPH+.dgn
Thursday, August 22, 2013 11:31 AM 88064 215-701427-02_LnClosureMultiLn-IntermittantOrMovingOpLTorEQ40MPH.dgn
Thursday, August 22, 2013 11:32 AM 98816 215-701428_TrafficControlSetupRemovalFreewayExpressway.dgn
Thursday, August 22, 2013 11:33 AM 100352 215-701431-09_LnClosureMultiLnUndivided+Crossover45-55MPH.dgn
Thursday, August 22, 2013 11:34 AM 94208 215-701446-05_TwoLnClosure-FrwayExpway.dgn
Thursday, August 22, 2013 11:40 AM 142848 215-701451-02_RampClosureFreewayExp.dgn
Thursday, August 22, 2013 11:53 AM 91136 215-701456-03_PartialExitRampClosureFreewayExpressway.dgn
Thursday, August 22, 2013 11:53 AM 91136 215-701501-06_UrbanLnClosure2L2W-Undivided.dgn
Thursday, August 22, 2013 11:54 AM 113152 215-701502-06_UrbanLnClosure2L2W+BidirectLeftTurnLn.dgn
Thursday, August 22, 2013 11:55 AM 114688 215-701601-09_UrbanLnClosureMultiLn1W2W+NontrvsableMed.dgn
Thursday, August 22, 2013 11:56 AM 172544 215-701602-07_UrbanLnClosureMultiLn2W+BidirectLeftTurnLn.dgn
Thursday, August 22, 2013 11:57 AM 121344 215-701606-09_UrbanLnClosureMultiLn2W+MountableMed.dgn
Thursday, August 22, 2013 1:04 PM 96768 215-701701-09_UrbanLnClosureMultiLnIntersection.dgn
Thursday, August 22, 2013 1:05 PM 141312 215-701801-05_SidewalkCornerOrCrosswalkClosure.dgn
Thursday, August 22, 2013 1:06 PM 251904 215-701901-03_TrafCntrlDevices.dgn
Thursday, August 22, 2013 1:07 PM 204288 215-704001-07_TempConcBarrier.dgn
Thursday, August 22, 2013 1:08 PM 103936 215-720001-01_SignPanelMountDetails.dgn
Thursday, August 22, 2013 1:08 PM 98304 215-720006-04_SignPanelErectDetails.dgn
Thursday, August 22, 2013 1:09 PM 82944 215-720011-01_MetalPostsForSignsMrkrs&Delineators.dgn
Thursday, August 22, 2013 1:10 PM 111104 215-720016-03_MastArmMountedStNameSigns.dgn
Thursday, August 22, 2013 1:11 PM 193024 215-720021-02_SignPanels-ExtrudedAlumType.dgn
Thursday, August 22, 2013 1:12 PM 109056 215-728001-01_TelescopingSteelSignSupport.dgn
Thursday, August 22, 2013 1:13 PM 89600 215-729001-01_AppOfTypesA&BPosts.dgn
Thursday, August 22, 2013 1:16 PM 91136 215-731001-01_BaseForTelescopingSteelSignSupport.dgn
Thursday, August 22, 2013 1:16 PM 165376 215-780001-04_TypicalPvmtMrkings.dgn
Thursday, August 22, 2013 1:17 PM 112640 215-781001-03_TypicalAppRaisedReflcPvmtMrkrs.dgn
Thursday, August 22, 2013 1:18 PM 194560 215-782001_PrismaticReflectorsOnCurbs.dgn
Thursday, August 22, 2013 1:26 PM 94720 215-805001-01_ElecSrvcInstallDetails.dgn
Thursday, August 22, 2013 1:26 PM 118272 215-814001-02_Handholes.dgn
Thursday, August 22, 2013 1:27 PM 195072 215-814006-02_DoubleHandholes.dgn
Thursday, August 22, 2013 1:28 PM 195584 215-821101_Luminaire Wiring Diagram.dgn
Thursday, August 22, 2013 1:29 PM 147456 215-825001-01_LightingControllerPoleMount240V.dgn
Thursday, August 22, 2013 1:30 PM 106496 215-825006-01_LightingControllerPoleMount480V.dgn
Thursday, August 22, 2013 1:31 PM 115200 215-825011-02_LightingControllerPedestalMount240V.dgn
Thursday, August 22, 2013 1:32 PM 116736 215-825016-02_LightingControllerPedestalMount480V.dgn
Thursday, August 22, 2013 1:33 PM 115200 215-825021-02_LightingControllerBaseMount240V.dgn
Thursday, August 22, 2013 1:34 PM 117760 215-825026-02_LightingControllerBaseMount480V.dgn
Thursday, August 22, 2013 1:35 PM 133120 215-826001_NavigationObstructionLightingController240V.dgn
Thursday, August 22, 2013 1:36 PM 131584 215-826006_NavigationObstructionLightingController480V.dgn.dgn
Thursday, August 22, 2013 1:41 PM 138752 215-830001-02_LightPoleAluminumMastArm.dgn
Thursday, August 22, 2013 1:42 PM 140800 215-830006-02_LightPoleAluminumDavitArm.dgn
Thursday, August 22, 2013 1:43 PM 264192 215-830011-02_LightPoleSteelMastArm.dgn
Thursday, August 22, 2013 1:44 PM 264192 215-830016-02_LightPoleSteelDavitArm.dgn
Thursday, August 22, 2013 1:49 PM 264192 215-830021-02_LightPoleSteelTenonTop.dgn
Thursday, August 22, 2013 1:50 PM 345088 215-830026_TemporaryRoadwayLighting.dgn
Thursday, August 22, 2013 1:56 PM 156672 215-835001_LightTower.dgn
Thursday, August 22, 2013 1:57 PM 103424 215-836001-02_LightPoleFoundation.dgn
Thursday, August 22, 2013 1:57 PM 155136 215-836006-01_LightPoleFoundationWith32inMedianBarrier.dgn
Thursday, August 22, 2013 1:58 PM 135168 215-836011-01_LightPoleFoundationWith42inMedianBarrier.dgn
Thursday, August 22, 2013 1:59 PM 123904 215-837001-03_LightTowerFoundation.dgn
Thursday, August 22, 2013 2:00 PM 114176 215-838001_BreakawayDevices.dgn
Thursday, August 22, 2013 2:00 PM 122880 215-857001-01_StdPhaseDesignationDiagrams&PhaseSeq.dgn
Thursday, August 22, 2013 2:01 PM 75776 215-857006-01_SupervisedRRInterconnectCircuit-.dgn
Thursday, August 22, 2013 2:02 PM 68096 215-862001-01_UPS.dgn
Thursday, August 22, 2013 2:03 PM 138752 215-873001-02_TrafSignalGround&Bond.dgn
Thursday, August 22, 2013 2:03 PM 86016 215-876001-03_PedestrianPushButtonPost.dgn
Thursday, August 22, 2013 2:04 PM 92160 215-877001-05_SteelMastArmAssembly&Pole16'thre55'.dgn
Thursday, August 22, 2013 2:09 PM 98304 215-877002-02_SteelMastArmAssembly&Pole56'thru75'.dgn
Thursday, August 22, 2013 2:11 PM 101376 215-877006-04_SteelMastArmAssembly&PoleWithDualMastarms.dgn
Thursday, August 22, 2013 2:13 PM 105472 215-877011-05_SteelComboMastArmAssembly&Pole16'thru55'.dgn
Thursday, August 22, 2013 2:22 PM 108544 215-877012-02_SteelComboMastArmAssembly&Pole56'thru75'.dgn
Thursday, August 22, 2013 2:24 PM 152576 215-878001-09_ConcreteFoundationDetails.dgn
Thursday, August 22, 2013 2:25 PM 114176 215-880001-01_SpanWireMountSignals&FlashBeaconInstall.dgn
Thursday, August 22, 2013 2:26 PM 98304 215-880006-01_TrfSignalMountDetails-Post&BracketMount.dgn
Thursday, August 22, 2013 2:27 PM 165376 215-886001-01_DetectorLoopInstallations.dgn
Thursday, August 22, 2013 2:28 PM 81920 215-886006-01_TypicalLayoutsForDetectionLoops.dgn
Thursday, August 22, 2013 2:29 PM 218112 215-BLR10-6_PCCPvmtSpecial-NonReinf.dgn
Thursday, August 22, 2013 2:29 PM 171520 215-BLR14-10_PCCPvmt-NonReinf.dgn
Thursday, August 22, 2013 2:30 PM 234496 215-BLR17-4_TrafCntrlDevices-DayLaborConstr.dgn
Thursday, August 22, 2013 2:31 PM 101376 215-BLR18-5_TrafCntrlDevices-DayLaborMaint.dgn
Thursday, August 22, 2013 2:32 PM 224768 215-BLR20-7_TrafBarrierTermType5R.dgn
Thursday, August 22, 2013 2:33 PM 86528 215-BLR21-9_TypAppTrafCntrlDevices-ConstrOnRuralLocalHwys.dgn
Thursday, August 22, 2013 2:34 PM 86528 215-BLR22-7_TypAppTrafCntrlDevices-ConstrOnRuralLocalHwys(2L2W-RdClsdToThruTraf).dgn
Thursday, August 22, 2013 2:35 PM 213504 215-BLR23-4_TrafBarrierTermType1.dgn
Thursday, August 22, 2013 2:36 PM 156672 215-BLR24-2_MailboxTurn-LocalRds.dgn
Thursday, August 22, 2013 2:37 PM 95232 215-BLR25-1_Type1ABarrForNonNHSRts.dgn
Thursday, August 22, 2013 2:38 PM 353792 215-BLR26-3_SteelPlateBeemGR29inchHt.dgn
Thursday, August 22, 2013 2:39 PM 191488 215-BLR27-1_TrafBarTermType5A.dgn